User: anonymous   Login
Location: Starry Hill Observatory
(46.8582°N, 122.3590°W)
Time: 20:33:59
(UTC-07:00)
Language:

Cosmos 1300 Rocket - Orbit

View from above orbital plane
View from above orbital plane
View from above satellite
View from above satellite

Ground track
Ground track

The orbit data is extracted from the following two-line orbital elements,

1 12786U 81082B   15241.52099300  .00000202  00000-0  21171-4 0  9994
2 12786 082.4870 227.4743 0016038 265.3692 094.5692 14.84505653837234
Epoch (UTC): 29 August 2015 12:30:13
Eccentricity: 0.0016038
inclination: 82.4870°
perigee height: 604 km
apogee height: 626 km
right ascension of ascending node: 227.4743°
argument of perigee: 265.3692°
revolutions per day: 14.84505653
mean anomaly at epoch: 94.5692°
orbit number at epoch: 83723

The dashed part of the orbit path shows where the satellite is in the earth's shadow,  

DLR